Rabat-Sale, Morocco

4:44 PM WET on May 23, 2017 (GMT +0000)
Rabat-Sale

Weather History for GMME - December, 2013

Change the Weather History Date:

Tuesday, December 3, 2013

  Actual Average Record
Temperature  
Mean Temperature 54 °F -  
Max Temperature 67 °F 63 °F 73 °F (1999)
Min Temperature 40 °F 46 °F 39 °F (2008)
Degree Days  
Heating Degree Days 12    
Growing Degree Days 4 (Base 50)    
Moisture  
Dew Point 40 °F    
Average Humidity 65    
Maximum Humidity 87    
Minimum Humidity 28    
Precipitation  
Precipitation 0.00 in 0.13 in - ()
Sea Level Pressure  
Sea Level Pressure 30.06 in    
Wind  
Wind Speed 0 mph ()    
Max Wind Speed 5 mph    
Max Gust Speed -    
Visibility 4.2 miles    
Events      
Averages and records for this station are not official NWS values.
T = Trace of Precipitation, MM = Missing Value Source: Averaged Metar Reports

Daily Weather History Graph

Daily Weather History Graph

Search for Another Location

Airport or City:

Trip Planner

Search our weather history database for the weather conditions in past years. The results will help you decide how hot, cold, wet, or windy it might be!

Date:

Astronomy

Dec. 03, 2013 Rise Set
Actual Time 7:16 AM WET 5:17 PM WET
Civil Twilight 6:48 AM WET 5:45 PM WET
Nautical Twilight 6:17 AM WET 6:16 PM WET
Astronomical Twilight 5:47 AM WET 6:46 PM WET
Moon 7:32 AM WET (12/3) 6:05 PM WET (12/3)
Length of Visible Light 10h 56m
Length of Day
10h 01m
New Moon, 0% of the Moon is Illuminated
Dec 3
New Moon
Dec 9
First Quarter
Dec 17
Full
Dec 25
Last Quarter
Jan 1
New

Hourly Weather History & Observations

Time (WET) Temp. Dew Point Humidity Pressure Visibility Wind Dir Wind Speed Gust Speed Precip Events Conditions
12:00 AM 47 °F 39 °F 66% 30.04 in 5 mi Calm Calm - -  
12:00 AM 48.2 °F 39.2 °F 71% 30.01 in 5.0 mi Calm Calm - N/A   Clear
12:30 AM 48.2 °F 39.2 °F 71% 30.01 in 5.0 mi Calm Calm - N/A   Clear
1:00 AM 44.6 °F 39.2 °F 81% 30.04 in 5.0 mi Calm Calm - N/A   Clear
1:30 AM 44.6 °F 39.2 °F 81% 30.01 in - Calm Calm - N/A   Unknown
2:00 AM 44.6 °F 39.2 °F 81% 30.01 in 3.7 mi Calm Calm - N/A   Clear
2:30 AM 42.8 °F 37.4 °F 81% 30.01 in 3.7 mi Calm Calm - N/A   Clear
3:00 AM 41 °F 37 °F 81% 30.05 in 4 mi Calm Calm - -  
3:00 AM 41.0 °F 37.4 °F 87% 30.04 in 3.7 mi Calm Calm - N/A   Clear
3:30 AM 44.6 °F 41.0 °F 87% 30.01 in - Calm Calm - N/A   Unknown
4:00 AM 41.0 °F 37.4 °F 87% 30.01 in 3.7 mi Calm Calm - N/A   Clear
4:30 AM 44.6 °F 41.0 °F 87% 30.01 in 3.7 mi Calm Calm - N/A   Clear
5:00 AM 42.8 °F 39.2 °F 87% 30.04 in 3.7 mi Calm Calm - N/A   Clear
5:30 AM 42.8 °F 39.2 °F 87% 30.04 in 3.7 mi Calm Calm - N/A   Clear
6:00 AM 42 °F 38 °F 81% 30.06 in 4 mi Calm Calm - -  
6:00 AM 41.0 °F 37.4 °F 87% 30.04 in 3.7 mi Calm Calm - N/A   Clear
6:30 AM 44.6 °F 39.2 °F 81% 30.04 in 3.7 mi Variable 1.2 mph - N/A   Clear
7:00 AM 42.8 °F 39.2 °F 87% 30.04 in 5.0 mi North 1.2 mph - N/A   Clear
7:30 AM 41.0 °F 37.4 °F 87% 30.06 in 5.0 mi Calm Calm - N/A   Unknown
8:00 AM 44.6 °F 41.0 °F 87% 30.06 in 5.0 mi Variable 2.3 mph - N/A   Unknown
8:30 AM 48.2 °F 41.0 °F 76% 30.06 in 5.0 mi SE 3.5 mph - N/A   Unknown
9:00 AM 54 °F 42 °F 53% 30.10 in 5 mi Calm Calm - -  
9:00 AM 53.6 °F 41.0 °F 62% 30.09 in 5.0 mi Calm Calm - N/A   Unknown
9:30 AM 57.2 °F 41.0 °F 55% 30.09 in - Calm Calm - N/A   Clear
10:00 AM 60.8 °F 41.0 °F 48% 30.09 in - Calm Calm - N/A   Clear
10:30 AM 62.6 °F 37.4 °F 39% 30.09 in - Calm Calm - N/A   Clear
11:00 AM 64.4 °F 37.4 °F 37% 30.09 in - Calm Calm - N/A   Clear
11:30 AM 64.4 °F 37.4 °F 37% 30.09 in - Calm Calm - N/A   Clear
12:00 PM 65 °F 40 °F 28% 30.09 in 6 mi NNW 2.3 mph - -  
12:00 PM 64.4 °F 39.2 °F 40% 30.06 in - Variable 2.3 mph - N/A   Clear
12:30 PM 66.2 °F 42.8 °F 43% 30.06 in - Variable 1.2 mph - N/A   Clear
1:00 PM 66.2 °F 41.0 °F 40% 30.06 in - Calm Calm - N/A   Clear
1:30 PM 66.2 °F 42.8 °F 43% 30.04 in - Calm Calm - N/A   Clear
2:00 PM 68.0 °F 39.2 °F 35% 30.04 in - Calm Calm - N/A   Clear
2:30 PM 68.0 °F 42.8 °F 40% 30.04 in - Variable 2.3 mph - N/A   Clear
3:00 PM 66 °F 42 °F 30% 30.06 in 6 mi NW 4.6 mph - -  
3:00 PM 66.2 °F 42.8 °F 43% 30.04 in - NW 4.6 mph - N/A   Clear
3:30 PM 66.2 °F 42.8 °F 43% 30.06 in - NW 3.5 mph - N/A   Clear
4:00 PM 64.4 °F 42.8 °F 45% 30.06 in - NNW 3.5 mph - N/A   Clear
4:30 PM 64.4 °F 42.8 °F 45% 30.06 in - North 3.5 mph - N/A   Clear
5:00 PM 60.8 °F 42.8 °F 52% 30.06 in 5.0 mi Calm Calm - N/A   Clear
5:30 PM 57.2 °F 42.8 °F 59% 30.06 in 3.1 mi Calm Calm - N/A   Clear
6:00 PM 52 °F 42 °F 58% 30.09 in 3 mi Calm Calm - -   Scattered Clouds
6:00 PM 51.8 °F 42.8 °F 71% 30.06 in 3.1 mi Calm Calm - N/A   Partly Cloudy
6:30 PM 50.0 °F 41.0 °F 71% 30.09 in 3.1 mi Calm Calm - N/A   Partly Cloudy
7:00 PM 48.2 °F 41.0 °F 76% 30.09 in 3.7 mi Calm Calm - N/A   Partly Cloudy
7:30 PM 46.4 °F 41.0 °F 81% 30.09 in - Calm Calm - N/A   Partly Cloudy
8:00 PM 46.4 °F 41.0 °F 81% 30.09 in 3.7 mi Calm Calm - N/A   Partly Cloudy
8:30 PM 51.8 °F 39.2 °F 62% 30.09 in 3.7 mi Calm Calm - N/A   Partly Cloudy
9:00 PM 50 °F 39 °F 55% 30.12 in 4 mi Calm Calm - -   Scattered Clouds
9:00 PM 50.0 °F 39.2 °F 66% 30.09 in 3.7 mi Calm Calm - N/A   Partly Cloudy
9:30 PM 51.8 °F 39.2 °F 62% 30.09 in 3.7 mi SE 4.6 mph - N/A   Partly Cloudy
10:00 PM 51.8 °F 37.4 °F 58% 30.09 in 3.7 mi Calm Calm - N/A   Partly Cloudy
10:30 PM 44.6 °F 37.4 °F 76% 30.12 in 3.7 mi Calm Calm - N/A   Partly Cloudy
11:00 PM 42.8 °F 37.4 °F 81% 30.12 in 3.7 mi Calm Calm - N/A   Partly Cloudy
11:30 PM 42.8 °F 37.4 °F 81% 30.12 in 3.7 mi Calm Calm - N/A   Partly Cloudy